TimePDT,TemperatureF,Dew PointF,Humidity,Sea Level PressureIn,VisibilityMPH,Wind Direction,Wind SpeedMPH,Gust SpeedMPH,PrecipitationIn,Events,Conditions,WindDirDegrees,DateUTC
12:53 AM,52.0,41.0,66,30.28,10.0,NNE,13.8,20.7,N/A,,Clear,20,2012-10-03 07:53:00
1:53 AM,52.0,39.9,63,30.29,10.0,NNE,8.1,-,N/A,,Clear,20,2012-10-03 08:53:00
2:53 AM,51.1,39.0,63,30.30,10.0,NNE,5.8,-,N/A,,Clear,30,2012-10-03 09:53:00
3:53 AM,51.1,34.0,52,30.30,10.0,NNE,11.5,-,N/A,,Clear,20,2012-10-03 10:53:00
4:53 AM,52.0,32.0,47,30.32,10.0,North,11.5,-,N/A,,Clear,10,2012-10-03 11:53:00
5:53 AM,51.1,32.0,48,30.33,10.0,NE,11.5,17.3,N/A,,Clear,40,2012-10-03 12:53:00
6:53 AM,51.1,35.1,54,30.33,10.0,North,15.0,23.0,N/A,,Clear,10,2012-10-03 13:53:00
7:53 AM,51.1,36.0,56,30.35,10.0,North,10.4,16.1,N/A,,Clear,10,2012-10-03 14:53:00
8:53 AM,53.1,36.0,52,30.35,10.0,North,12.7,19.6,N/A,,Clear,10,2012-10-03 15:53:00
9:53 AM,55.0,34.0,45,30.36,10.0,North,18.4,25.3,N/A,,Clear,10,2012-10-03 16:53:00
10:53 AM,55.9,34.0,44,30.37,10.0,North,16.1,25.3,N/A,,Clear,360,2012-10-03 17:53:00
11:53 AM,57.9,35.1,42,30.35,10.0,North,16.1,26.5,N/A,,Clear,10,2012-10-03 18:53:00
12:53 PM,60.1,34.0,38,30.35,10.0,North,17.3,25.3,N/A,,Clear,360,2012-10-03 19:53:00
1:53 PM,61.0,32.0,34,30.32,10.0,North,18.4,-,N/A,,Clear,10,2012-10-03 20:53:00
2:53 PM,62.1,33.1,34,30.30,10.0,North,16.1,-,N/A,,Clear,360,2012-10-03 21:53:00
3:53 PM,62.1,33.1,34,30.29,10.0,North,19.6,24.2,N/A,,Clear,360,2012-10-03 22:53:00
4:53 PM,61.0,30.9,32,30.27,10.0,North,20.7,28.8,N/A,,Clear,10,2012-10-03 23:53:00
5:53 PM,60.8,30.2,31,30.27,10.0,North,18.4,-,N/A,,Clear,360,2012-10-04 00:53:00
6:53 PM,57.9,33.1,39,30.26,10.0,North,19.6,26.5,N/A,,Clear,360,2012-10-04 01:53:00
7:53 PM,55.9,35.1,45,30.26,10.0,North,13.8,21.9,N/A,,Clear,10,2012-10-04 02:53:00
8:53 PM,55.0,36.0,49,30.27,10.0,NNE,11.5,-,N/A,,Clear,20,2012-10-04 03:53:00
9:53 PM,54.0,36.0,51,30.27,10.0,North,13.8,-,N/A,,Clear,10,2012-10-04 04:53:00
10:53 PM,54.0,37.0,53,30.27,10.0,North,17.3,-,N/A,,Clear,10,2012-10-04 05:53:00
11:53 PM,54.0,35.1,49,30.27,10.0,North,15.0,24.2,N/A,,Clear,360,2012-10-04 06:53:00